Weather in Ivanovka

Russia / Astrakhan Oblast     47°17′49″N   47°01′36″E
temp.,
°C
wind,
m/s
gust,
m/s
humid.,
%
clouds,
%
prec.,
mm/h
press.,
hPa
HPBL,
m
1 august, sun
sun101:00+26sse44422 0.0 101140
04:00+24sse335315 0.0 101132
07:00+24sse23540 0.0 101298
10:00+30sse23340 0.0 1012667
13:00+32ese44320 0.0 10111689
16:00+34e44305 0.0 10102072
19:00+33ene33335 0.0 1010462
22:00+30sse343999 0.0 101068
2 august, mon
mon201:00+28ssw47418 0.3 1011110
04:00+26sw33465 0.4 101122
07:00+27s234295 0.0 101270
10:00+30sse2232100 0.0 1012287
13:00+33se242390 0.0 10121220
16:00+36sse351818 0.0 10103026
19:00+36ssw351853 0.0 1010431
22:00+30s572314 0.0 101185
3 august, tue
tue301:00+28s44305 0.0 101039
04:00+26s33375 0.0 101126
07:00+28nw11365 0.0 101211
10:00+33se22235 0.0 1012476
13:00+37se35160 0.0 10113118
16:00+38sse45140 0.0 10093522
19:00+37sse35155 0.0 1009192
22:00+31s59180 0.0 1010108
4 august, wed
wed401:00+29ssw57230 0.0 101081
04:00+27ssw45270 0.0 101054
07:00+28ssw35302 0.0 101189
10:00+34ssw451960 0.0 1011624
13:00+38ssw4514100 0.0 10093061
16:00+37nw9721100 0.0 10091872
19:00+33nnw562892 0.0 1010379
22:00+30nw34338 0.0 101142
5 august, thu
thu501:00+27n5114598 0.0 1012246
04:00+26n4851100 0.0 1012143
07:00+26nw4654100 0.0 1013159
10:00+22n6776100 2.8 1014176
13:00+29n344755 0.0 10141061
16:00+32nne343686 0.0 10132030
19:00+31n55310 0.0 10121253
22:00+27n58361 0.0 1013123